Regional Weather Roundup
Issued by NWS

Home | Current Version | Previous Version | Graphics & Text | Print | Product List | Glossary On
Versions: 1 2 3 4 5 6 7 8 9 10 11 12 13 14 15 16 17 18 19 20 21 22 23 24 25 26 27 28 29 30 31 32 33 34 35 36 37 38 39 40 41 42 43 44 45 46 47 48 49 50
000
ASUS44 KMEG 270300
RWRTN
TENNESSEE HOURLY STATE WEATHER ROUNDUP
NATIONAL WEATHER SERVICE MEMPHIS TN
1000 PM CDT THU MAR 26 2015

TNZ002-004-019-021-049-052-054-088>092-270400-
WEST TENNESSEE

CITY           SKY/WX    TMP DP  RH WIND       PRES   REMARKS
MEMPHIS INTL   CLEAR     44  36  73 N8        30.06R
NWS MEMPHIS      N/A     42 N/A N/A MISG        N/A
JACKSON        PTCLDY    40  35  83 N8        30.05S WCI  34
DYERSBURG      CLEAR     39  25  56 NE3       30.08S
UNION CITY     CLEAR     37  36  93 CALM      30.05S
PARIS          CLEAR     36  32  87 N3        30.05F
LEXINGTON      CLOUDY    43  37  81 N9        30.01S
SAVANNAH       MOCLDY    43  43 100 N10       30.01S
$$

TNZ008-025-027-028-033-062-065-066-270400-
NORTH MIDDLE TENNESSEE

CITY           SKY/WX    TMP DP  RH WIND       PRES   REMARKS
NASHVILLE      CLOUDY    43  39  86 N13G21    30.01S
CLARKSVILLE    PTCLDY    39  37  92 N7        30.05F WCI  34
COOKEVILLE     CLOUDY    41  39  93 VRB7      29.94S
CROSSVILLE     LGT RAIN  41  38  89 N12G24    29.91R
$$

TNZ061-075-076-078-094-096-097-270400-
SOUTH MIDDLE TENNESSEE

CITY           SKY/WX    TMP DP  RH WIND       PRES   REMARKS
FAYETTEVILLE   CLOUDY    41  39  93 N13       29.94R
TULLAHOMA      CLOUDY    41  37  87 N10       29.96R
WINCHESTER     CLOUDY    45  43  93 N10       29.92F
COLUMBIA       MOCLDY   N/A N/A N/A N7        29.96F
SHELBYVILLE    MOCLDY    43  43 100 N10       29.98S
$$

TNZ017-018-042-046-047-270400-
NORTHEAST TENNESSEE

CITY           SKY/WX    TMP DP  RH WIND       PRES   REMARKS
TRI CITIES     RAIN      47  44  90 N10       29.83R FOG
ELIZABETHTON   LGT RAIN  48  45  87 SW5       29.80R
$$

TNZ012-013-036-069-073-074-270400-
CENTRAL EAST TENNESSEE

CITY           SKY/WX    TMP DP  RH WIND       PRES   REMARKS
KNOXVILLE      LGT RAIN  47  44  90 N10       29.90R
OAK RIDGE      RAIN      47  44  90 NE3       29.91R
GATLINBURG     CLOUDY    46  45  93 NW7       29.90R
$$

TNZ083-085-099-270400-
SOUTHEAST TENNESSEE

CITY           SKY/WX    TMP DP  RH WIND       PRES   REMARKS
CHATTANOOGA    CLOUDY    52  42  69 N15G26    29.89R
$$

SKY/WX REPORTED AS FAIR MEANS FEW OR NO CLOUDS BELOW
12 THOUSAND FEET.



USA.gov is the U.S. government's official web portal to all federal, state and local government web resources and services.